| time (UTC) | temp F | wind direction | speed MPH | gust MPH | rain 1hr in | rain 24hr in | rain mn in | humidity % | barometer mb |
| 20260505175053 | 67 | 214 | 1.0 | 5.0 | 0.00 | 0.34 | 0.14 | 58 | 1013.2 |
| 20260505174553 | 66 | 0 | 0.0 | 7.0 | 0.00 | 0.34 | 0.14 | 60 | 1013.2 |
| 20260505174053 | 66 | 219 | 3.0 | 7.0 | 0.00 | 0.34 | 0.14 | 58 | 1013.2 |
| 20260505173553 | 66 | 0 | 2.0 | 7.0 | 0.00 | 0.34 | 0.14 | 58 | 1013.2 |
| 20260505173053 | 66 | 138 | 1.0 | 10.0 | 0.00 | 0.34 | 0.14 | 61 | 1013.2 |
| 20260505172552 | 65 | 123 | 4.0 | 10.0 | 0.00 | 0.34 | 0.14 | 61 | 1013.4 |
| 20260505172053 | 65 | 0 | 1.0 | 5.0 | 0.00 | 0.34 | 0.14 | 63 | 1013.3 |
| 20260505171556 | 64 | 32 | 0.0 | 3.0 | 0.00 | 0.34 | 0.14 | 66 | 1013.2 |
| 20260505171057 | 64 | 51 | 0.0 | 3.0 | 0.00 | 0.34 | 0.14 | 65 | 1013.1 |
| 20260505170559 | 64 | 51 | 0.0 | 4.0 | 0.00 | 0.34 | 0.14 | 65 | 1013.2 |
| 20260505170103 | 64 | 0 | 2.0 | 5.0 | 0.00 | 0.34 | 0.14 | 65 | 1013.2 |
| 20260505165552 | 64 | 51 | 1.0 | 5.0 | 0.00 | 0.34 | 0.14 | 68 | 1013.1 |
| 20260505165052 | 64 | 51 | 1.0 | 5.0 | 0.00 | 0.34 | 0.14 | 67 | 1013.2 |
| 20260505164554 | 64 | 55 | 1.0 | 5.0 | 0.00 | 0.34 | 0.14 | 69 | 1013.2 |
| 20260505164052 | 63 | 0 | 0.0 | 6.0 | 0.00 | 0.34 | 0.14 | 71 | 1013.2 |
| 20260505163555 | 63 | 0 | 2.0 | 7.0 | 0.00 | 0.34 | 0.14 | 70 | 1013.1 |
| 20260505163102 | 63 | 54 | 3.0 | 7.0 | 0.00 | 0.34 | 0.14 | 70 | 1013.1 |
| 20260505162553 | 63 | 67 | 1.0 | 4.0 | 0.00 | 0.34 | 0.14 | 70 | 1013.0 |
| 20260505162053 | 63 | 68 | 0.0 | 4.0 | 0.00 | 0.34 | 0.14 | 72 | 1013.1 |
| 20260505161556 | 63 | 68 | 1.0 | 4.0 | 0.00 | 0.34 | 0.14 | 71 | 1013.2 |
| 20260505161053 | 63 | 69 | 1.0 | 4.0 | 0.00 | 0.34 | 0.14 | 72 | 1013.2 |
| 20260505160552 | 63 | 0 | 0.0 | 3.0 | 0.00 | 0.34 | 0.14 | 73 | 1013.2 |
| 20260505160103 | 62 | 0 | 0.0 | 3.0 | 0.00 | 0.34 | 0.14 | 72 | 1013.2 |
| 20260505153108 | 62 | 0 | 1.0 | 3.0 | 0.00 | 0.34 | 0.14 | 74 | 1013.0 |
| 20260505152551 | 62 | 0 | 0.0 | 2.0 | 0.00 | 0.34 | 0.14 | 78 | 1013.0 |
| 20260505152051 | 61 | 0 | 0.0 | 1.0 | 0.00 | 0.34 | 0.14 | 77 | 1013.0 |
| 20260505151555 | 61 | 0 | 0.0 | 1.0 | 0.00 | 0.34 | 0.14 | 79 | 1013.0 |
| 20260505151053 | 61 | 0 | 0.0 | 2.0 | 0.00 | 0.34 | 0.14 | 81 | 1013.1 |
| 20260505150553 | 60 | 150 | 0.0 | 2.0 | 0.00 | 0.34 | 0.14 | 83 | 1013.1 |
| 20260505150115 | 60 | 0 | 0.0 | 3.0 | 0.00 | 0.34 | 0.14 | 83 | 1013.1 |
| 20260505140552 | 59 | 0 | 0.0 | 1.0 | 0.00 | 0.34 | 0.14 | 88 | 1013.0 |
| 20260505140112 | 59 | 0 | 0.0 | 1.0 | 0.00 | 0.34 | 0.14 | 88 | 1012.9 |
| 20260505124559 | 57 | 0 | 0.0 | 0.0 | 0.00 | 0.34 | 0.14 | 89 | 1012.1 |
| 20260505124053 | 57 | 0 | 0.0 | 0.0 | 0.00 | 0.34 | 0.14 | 89 | 1012.0 |
| 20260505123556 | 57 | 0 | 0.0 | 3.0 | 0.00 | 0.34 | 0.14 | 89 | 1011.8 |
| 20260505123110 | 57 | 0 | 0.0 | 3.0 | 0.00 | 0.34 | 0.14 | 89 | 1011.8 |
| 20260505122555 | 57 | 130 | 0.0 | 2.0 | 0.00 | 0.34 | 0.14 | 89 | 1011.8 |
| 20260505122053 | 57 | 0 | 0.0 | 1.0 | 0.00 | 0.34 | 0.14 | 89 | 1011.8 |
| 20260505121553 | 57 | 0 | 0.0 | 2.0 | 0.00 | 0.34 | 0.14 | 90 | 1011.8 |
| 20260505121053 | 57 | 0 | 0.0 | 2.0 | 0.00 | 0.34 | 0.14 | 90 | 1011.9 |
| 20260505120553 | 57 | 0 | 0.0 | 4.0 | 0.00 | 0.34 | 0.14 | 90 | 1011.8 |
| 20260505120055 | 57 | 0 | 0.0 | 4.0 | 0.00 | 0.34 | 0.14 | 90 | 1011.8 |
| 20260505115552 | 58 | 130 | 0.0 | 4.0 | 0.00 | 0.34 | 0.14 | 90 | 1011.4 |
| 20260505115052 | 58 | 130 | 0.0 | 7.0 | 0.01 | 0.34 | 0.14 | 90 | 1011.8 |
| 20260505114600 | 58 | 130 | 2.0 | 7.0 | 0.01 | 0.34 | 0.14 | 90 | 1011.6 |
| 20260505114054 | 58 | 135 | 3.0 | 7.0 | 0.01 | 0.34 | 0.14 | 90 | 1011.6 |
| 20260505113557 | 58 | 115 | 3.0 | 7.0 | 0.01 | 0.34 | 0.14 | 91 | 1011.4 |
| 20260505113056 | 58 | 0 | 2.0 | 7.0 | 0.01 | 0.34 | 0.14 | 91 | 1011.5 |
| 20260505112553 | 58 | 101 | 2.0 | 7.0 | 0.01 | 0.34 | 0.14 | 91 | 1011.6 |
| 20260505112053 | 58 | 105 | 0.0 | 4.0 | 0.01 | 0.34 | 0.14 | 91 | 1012.0 |
| 20260505111559 | 58 | 105 | 1.0 | 6.0 | 0.01 | 0.34 | 0.14 | 91 | 1011.9 |
| 20260505111053 | 58 | 105 | 1.0 | 6.0 | 0.01 | 0.34 | 0.14 | 91 | 1011.9 |
| 20260505110553 | 58 | 105 | 2.0 | 6.0 | 0.02 | 0.34 | 0.14 | 91 | 1011.8 |
| 20260505102052 | 57 | 103 | 3.0 | 7.0 | 0.01 | 0.33 | 0.13 | 90 | 1012.2 |
| 20260505101553 | 57 | 104 | 2.0 | 6.0 | 0.02 | 0.33 | 0.13 | 90 | 1012.3 |
| 20260505101052 | 57 | 105 | 1.0 | 4.0 | 0.02 | 0.33 | 0.13 | 90 | 1012.8 |
| 20260505100552 | 57 | 107 | 1.0 | 4.0 | 0.01 | 0.32 | 0.12 | 90 | 1013.1 |
| 20260505100100 | 57 | 111 | 1.0 | 6.0 | 0.01 | 0.32 | 0.12 | 90 | 1013.2 |
| 20260505095552 | 58 | 114 | 1.0 | 8.0 | 0.01 | 0.32 | 0.12 | 90 | 1013.2 |
| 20260505095054 | 58 | 108 | 2.0 | 10.0 | 0.02 | 0.32 | 0.12 | 90 | 1013.0 |
| 20260505094552 | 58 | 121 | 3.0 | 10.0 | 0.02 | 0.32 | 0.12 | 90 | 1013.0 |
| 20260505094053 | 58 | 97 | 5.0 | 10.0 | 0.02 | 0.32 | 0.12 | 90 | 1013.1 |
| 20260505093555 | 58 | 127 | 4.0 | 10.0 | 0.02 | 0.32 | 0.12 | 90 | 1013.1 |
| 20260505093056 | 58 | 113 | 5.0 | 10.0 | 0.02 | 0.32 | 0.12 | 90 | 1013.0 |
| 20260505092557 | 58 | 85 | 4.0 | 10.0 | 0.02 | 0.32 | 0.12 | 90 | 1013.2 |
| 20260505092053 | 58 | 117 | 2.0 | 11.0 | 0.03 | 0.32 | 0.12 | 90 | 1013.4 |
| 20260505091551 | 58 | 116 | 3.0 | 14.0 | 0.03 | 0.31 | 0.11 | 90 | 1013.5 |
| 20260505091052 | 58 | 94 | 5.0 | 14.0 | 0.03 | 0.31 | 0.11 | 90 | 1013.4 |
| 20260505090552 | 58 | 119 | 5.0 | 11.0 | 0.04 | 0.31 | 0.11 | 90 | 1013.5 |
| 20260505090106 | 58 | 84 | 5.0 | 14.0 | 0.04 | 0.31 | 0.11 | 90 | 1013.4 |
| 20260505085553 | 58 | 113 | 6.0 | 14.0 | 0.05 | 0.31 | 0.11 | 90 | 1013.2 |
| 20260505085055 | 58 | 123 | 8.0 | 14.0 | 0.04 | 0.30 | 0.10 | 90 | 1013.3 |
| 20260505084555 | 58 | 123 | 5.0 | 11.0 | 0.04 | 0.30 | 0.10 | 90 | 1013.6 |
| 20260505084053 | 58 | 132 | 5.0 | 11.0 | 0.05 | 0.30 | 0.10 | 90 | 1013.7 |
| 20260505083553 | 58 | 116 | 4.0 | 9.0 | 0.06 | 0.30 | 0.10 | 90 | 1013.6 |
| 20260505083109 | 58 | 107 | 4.0 | 9.0 | 0.07 | 0.30 | 0.10 | 90 | 1013.8 |
| 20260505082553 | 58 | 77 | 2.0 | 5.0 | 0.08 | 0.30 | 0.10 | 90 | 1014.0 |
| 20260505082053 | 58 | 128 | 2.0 | 5.0 | 0.07 | 0.29 | 0.09 | 90 | 1014.4 |
| 20260505081554 | 58 | 129 | 2.0 | 7.0 | 0.07 | 0.28 | 0.08 | 90 | 1014.7 |
| 20260505081052 | 58 | 130 | 2.0 | 7.0 | 0.08 | 0.28 | 0.08 | 89 | 1014.8 |
| 20260505080552 | 58 | 108 | 2.0 | 7.0 | 0.07 | 0.27 | 0.07 | 89 | 1014.8 |
| 20260505080057 | 58 | 93 | 2.0 | 7.0 | 0.07 | 0.27 | 0.07 | 89 | 1014.9 |
| 20260505075552 | 58 | 106 | 2.0 | 9.0 | 0.06 | 0.26 | 0.06 | 89 | 1015.0 |
| 20260505075052 | 58 | 126 | 3.0 | 9.0 | 0.07 | 0.26 | 0.06 | 89 | 1015.0 |
| 20260505074559 | 58 | 116 | 3.0 | 9.0 | 0.07 | 0.26 | 0.06 | 89 | 1015.1 |
| 20260505074054 | 58 | 113 | 2.0 | 7.0 | 0.07 | 0.25 | 0.05 | 89 | 1015.2 |
| 20260505073552 | 58 | 125 | 3.0 | 7.0 | 0.06 | 0.24 | 0.04 | 89 | 1015.3 |
| 20260505073059 | 58 | 105 | 1.0 | 7.0 | 0.06 | 0.23 | 0.03 | 89 | 1015.3 |
| 20260505072550 | 58 | 110 | 2.0 | 7.0 | 0.05 | 0.22 | 0.02 | 89 | 1015.4 |
| 20260505072053 | 58 | 117 | 1.0 | 4.0 | 0.06 | 0.22 | 0.02 | 89 | 1015.4 |
| 20260505071558 | 58 | 117 | 1.0 | 6.0 | 0.05 | 0.21 | 0.01 | 88 | 1015.3 |
| 20260505071053 | 58 | 117 | 1.0 | 7.0 | 0.05 | 0.20 | 0.00 | 88 | 1015.3 |
| 20260505070553 | 58 | 119 | 1.0 | 7.0 | 0.06 | 0.20 | 0.00 | 88 | 1015.2 |
| 20260505070056 | 58 | 113 | 1.0 | 6.0 | 0.06 | 0.20 | 0.00 | 88 | 1015.2 |
| 20260505065553 | 58 | 0 | 1.0 | 6.0 | 0.06 | 0.20 | 0.20 | 88 | 1015.1 |
| 20260505065052 | 58 | 0 | 2.0 | 6.0 | 0.05 | 0.19 | 0.19 | 87 | 1015.1 |
| 20260505064556 | 58 | 0 | 1.0 | 7.0 | 0.05 | 0.19 | 0.19 | 87 | 1015.1 |
| 20260505064053 | 58 | 113 | 3.0 | 7.0 | 0.04 | 0.18 | 0.18 | 87 | 1015.4 |
| 20260505063552 | 58 | 138 | 0.0 | 5.0 | 0.05 | 0.18 | 0.18 | 87 | 1015.3 |
| 20260505063054 | 59 | 145 | 0.0 | 3.0 | 0.04 | 0.17 | 0.17 | 87 | 1015.2 |
| 20260505062553 | 59 | 0 | 0.0 | 3.0 | 0.05 | 0.17 | 0.17 | 86 | 1015.2 |
| 20260505062052 | 59 | 231 | 1.0 | 3.0 | 0.05 | 0.16 | 0.16 | 85 | 1015.0 |
| 20260505061550 | 59 | 0 | 1.0 | 3.0 | 0.05 | 0.16 | 0.16 | 84 | 1015.1 |
| 20260505061052 | 60 | 0 | 0.0 | 2.0 | 0.05 | 0.15 | 0.15 | 83 | 1015.0 |
| 20260505060552 | 60 | 0 | 0.0 | 2.0 | 0.04 | 0.14 | 0.14 | 82 | 1014.9 |
| 20260505060053 | 60 | 0 | 0.0 | 6.0 | 0.04 | 0.14 | 0.14 | 80 | 1014.9 |
| 20260505055553 | 60 | 0 | 0.0 | 6.0 | 0.04 | 0.14 | 0.14 | 79 | 1014.9 |
| 20260505055055 | 60 | 229 | 1.0 | 7.0 | 0.04 | 0.14 | 0.14 | 79 | 1014.8 |
| 20260505054552 | 60 | 0 | 3.0 | 7.0 | 0.05 | 0.14 | 0.14 | 79 | 1014.8 |
| 20260505054053 | 60 | 211 | 1.0 | 11.0 | 0.06 | 0.14 | 0.14 | 80 | 1014.8 |
| 20260505053552 | 61 | 213 | 1.0 | 12.0 | 0.05 | 0.13 | 0.13 | 79 | 1014.8 |
| 20260505053056 | 61 | 232 | 4.0 | 12.0 | 0.05 | 0.13 | 0.13 | 78 | 1014.9 |
| 20260505052554 | 61 | 223 | 2.0 | 12.0 | 0.04 | 0.12 | 0.12 | 78 | 1015.0 |
| 20260505052056 | 61 | 223 | 5.0 | 12.0 | 0.03 | 0.11 | 0.11 | 77 | 1015.0 |
| 20260505051551 | 61 | 219 | 4.0 | 13.0 | 0.04 | 0.11 | 0.11 | 78 | 1014.9 |
| 20260505051052 | 60 | 205 | 5.0 | 13.0 | 0.03 | 0.10 | 0.10 | 80 | 1014.7 |
| 20260505050552 | 59 | 219 | 3.0 | 13.0 | 0.03 | 0.10 | 0.10 | 83 | 1014.6 |
| 20260505050129 | 58 | 0 | 2.0 | 6.0 | 0.04 | 0.10 | 0.10 | 84 | 1014.6 |
| 20260505041604 | 57 | 115 | 3.0 | 7.0 | 0.02 | 0.07 | 0.07 | 80 | 1015.2 |
| 20260505041053 | 58 | 114 | 3.0 | 7.0 | 0.02 | 0.07 | 0.07 | 79 | 1015.3 |
| 20260505040557 | 58 | 142 | 1.0 | 5.0 | 0.02 | 0.07 | 0.07 | 77 | 1015.3 |
| 20260505040059 | 58 | 148 | 0.0 | 5.0 | 0.01 | 0.06 | 0.06 | 77 | 1015.4 |
| 20260505035557 | 58 | 0 | 1.0 | 5.0 | 0.01 | 0.06 | 0.06 | 75 | 1015.3 |
| 20260505035053 | 59 | 0 | 0.0 | 5.0 | 0.01 | 0.06 | 0.06 | 73 | 1015.3 |
| 20260505034558 | 59 | 149 | 0.0 | 5.0 | 0.01 | 0.06 | 0.06 | 72 | 1015.4 |
| 20260505034053 | 59 | 150 | 0.0 | 9.0 | 0.00 | 0.05 | 0.05 | 72 | 1015.1 |
| 20260505033553 | 59 | 153 | 0.0 | 9.0 | 0.00 | 0.05 | 0.05 | 70 | 1014.9 |
| 20260505033051 | 59 | 0 | 2.0 | 10.0 | 0.00 | 0.05 | 0.05 | 70 | 1014.6 |
| 20260505032552 | 59 | 115 | 4.0 | 10.0 | 0.00 | 0.05 | 0.05 | 69 | 1014.3 |
| 20260505032057 | 59 | 127 | 3.0 | 9.0 | 0.00 | 0.05 | 0.05 | 68 | 1014.3 |
| 20260505031559 | 60 | 107 | 1.0 | 11.0 | 0.00 | 0.05 | 0.05 | 67 | 1014.2 |
| 20260505031053 | 60 | 123 | 4.0 | 12.0 | 0.00 | 0.05 | 0.05 | 66 | 1014.3 |
| 20260505030553 | 60 | 120 | 6.0 | 12.0 | 0.01 | 0.05 | 0.05 | 65 | 1014.0 |
| 20260505030053 | 61 | 90 | 4.0 | 11.0 | 0.01 | 0.05 | 0.05 | 64 | 1014.0 |
| 20260505025552 | 62 | 100 | 6.0 | 11.0 | 0.01 | 0.05 | 0.05 | 62 | 1014.1 |
| 20260505025052 | 63 | 141 | 3.0 | 10.0 | 0.01 | 0.05 | 0.05 | 64 | 1014.0 |
| 20260505024556 | 62 | 161 | 3.0 | 10.0 | 0.02 | 0.05 | 0.05 | 65 | 1014.0 |
| 20260505024052 | 62 | 123 | 2.0 | 11.0 | 0.02 | 0.05 | 0.05 | 66 | 1013.8 |
| 20260505023552 | 62 | 218 | 3.0 | 12.0 | 0.03 | 0.05 | 0.05 | 67 | 1013.7 |
| 20260505023054 | 61 | 204 | 2.0 | 12.0 | 0.03 | 0.05 | 0.05 | 69 | 1014.0 |
| 20260505022552 | 61 | 0 | 2.0 | 11.0 | 0.03 | 0.05 | 0.05 | 68 | 1014.1 |
| 20260505022052 | 60 | 188 | 2.0 | 11.0 | 0.03 | 0.05 | 0.05 | 66 | 1014.0 |
| 20260505021555 | 60 | 207 | 2.0 | 11.0 | 0.04 | 0.05 | 0.05 | 64 | 1014.1 |
| 20260505021053 | 59 | 156 | 3.0 | 11.0 | 0.04 | 0.05 | 0.05 | 61 | 1013.8 |
| 20260505020553 | 59 | 155 | 2.0 | 18.0 | 0.03 | 0.04 | 0.04 | 65 | 1014.2 |
| 20260505020053 | 59 | 207 | 2.0 | 18.0 | 0.03 | 0.04 | 0.04 | 66 | 1014.2 |
| 20260505015554 | 60 | 232 | 8.0 | 18.0 | 0.03 | 0.04 | 0.04 | 64 | 1014.2 |
| 20260505015053 | 60 | 209 | 5.0 | 15.0 | 0.03 | 0.04 | 0.04 | 67 | 1014.5 |
| 20260505014606 | 60 | 223 | 3.0 | 15.0 | 0.02 | 0.03 | 0.03 | 65 | 1014.5 |
| 20260505014052 | 61 | 217 | 5.0 | 23.0 | 0.01 | 0.02 | 0.02 | 62 | 1014.5 |
| 20260505013552 | 62 | 227 | 5.0 | 23.0 | 0.01 | 0.02 | 0.02 | 55 | 1014.6 |
| 20260505013052 | 63 | 220 | 7.0 | 18.0 | 0.02 | 0.02 | 0.02 | 49 | 1014.5 |
| 20260505012553 | 63 | 360 | 5.0 | 16.0 | 0.02 | 0.02 | 0.02 | 47 | 1014.3 |
| 20260505012054 | 64 | 360 | 5.0 | 12.0 | 0.02 | 0.02 | 0.02 | 48 | 1014.2 |
| 20260505011553 | 64 | 360 | 4.0 | 14.0 | 0.01 | 0.01 | 0.01 | 48 | 1014.0 |
| 20260505011052 | 64 | 360 | 3.0 | 14.0 | 0.01 | 0.01 | 0.01 | 49 | 1013.8 |
| 20260505010549 | 64 | 0 | 4.0 | 14.0 | 0.01 | 0.01 | 0.01 | 47 | 1013.8 |
| 20260505010052 | 65 | 360 | 4.0 | 14.0 | 0.01 | 0.01 | 0.01 | 47 | 1013.5 |
| 20260505005549 | 65 | 360 | 5.0 | 14.0 | 0.01 | 0.01 | 0.01 | 44 | 1013.5 |
| 20260505005049 | 65 | 360 | 3.0 | 13.0 | 0.01 | 0.01 | 0.01 | 44 | 1013.5 |
| 20260505004552 | 64 | 360 | 3.0 | 12.0 | 0.01 | 0.01 | 0.01 | 46 | 1013.7 |
| 20260505004049 | 64 | 360 | 3.0 | 12.0 | 0.01 | 0.01 | 0.01 | 49 | 1013.9 |
| 20260505003556 | 65 | 360 | 3.0 | 12.0 | 0.01 | 0.01 | 0.01 | 48 | 1013.9 |
| 20260505003053 | 65 | 360 | 3.0 | 12.0 | 0.00 | 0.00 | 0.00 | 48 | 1014.0 |
| 20260505002553 | 65 | 360 | 3.0 | 12.0 | 0.00 | 0.00 | 0.00 | 50 | 1013.9 |
| 20260505002053 | 66 | 360 | 5.0 | 12.0 | 0.00 | 0.00 | 0.00 | 50 | 1014.1 |
| 20260505001611 | 66 | 360 | 2.0 | 11.0 | 0.00 | 0.00 | 0.00 | 47 | 1014.0 |
| 20260505001055 | 66 | 0 | 2.0 | 11.0 | 0.00 | 0.00 | 0.00 | 46 | 1014.0 |
| 20260505000553 | 67 | 360 | 3.0 | 11.0 | 0.00 | 0.00 | 0.00 | 48 | 1013.9 |
| 20260505000131 | 67 | 360 | 1.0 | 6.0 | 0.00 | 0.00 | 0.00 | 50 | 1014.0 |
| 20260504235555 | 68 | 0 | 1.0 | 6.0 | 0.00 | 0.00 | 0.00 | 48 | 1013.8 |
| 20260504235053 | 70 | 360 | 0.0 | 4.0 | 0.00 | 0.00 | 0.00 | 44 | 1013.8 |
| 20260504234610 | 71 | 360 | 0.0 | 1.0 | 0.00 | 0.00 | 0.00 | 40 | 1013.8 |
| 20260504234050 | 71 | 0 | 0.0 | 4.0 | 0.00 | 0.00 | 0.00 | 38 | 1013.7 |
| 20260504233554 | 71 | 0 | 0.0 | 4.0 | 0.00 | 0.00 | 0.00 | 37 | 1013.5 |
| 20260504233104 | 71 | 360 | 0.0 | 10.0 | 0.00 | 0.00 | 0.00 | 36 | 1013.6 |
| 20260504232550 | 71 | 360 | 3.0 | 10.0 | 0.00 | 0.00 | 0.00 | 38 | 1013.8 |
| 20260504232052 | 71 | 360 | 3.0 | 9.0 | 0.00 | 0.00 | 0.00 | 36 | 1014.1 |
| 20260504231553 | 71 | 360 | 1.0 | 8.0 | 0.00 | 0.00 | 0.00 | 35 | 1014.0 |
| 20260504231049 | 71 | 0 | 1.0 | 8.0 | 0.00 | 0.00 | 0.00 | 36 | 1014.1 |
| 20260504230553 | 71 | 360 | 3.0 | 11.0 | 0.00 | 0.00 | 0.00 | 36 | 1014.4 |
| 20260504230051 | 72 | 360 | 4.0 | 11.0 | 0.00 | 0.00 | 0.00 | 36 | 1014.3 |
| 20260504225552 | 73 | 360 | 5.0 | 18.0 | 0.00 | 0.00 | 0.00 | 31 | 1014.3 |
| 20260504225052 | 74 | 360 | 9.0 | 18.0 | 0.00 | 0.00 | 0.00 | 29 | 1014.2 |
| 20260504224609 | 75 | 360 | 4.0 | 20.0 | 0.00 | 0.00 | 0.00 | 27 | 1014.0 |
| 20260504224053 | 75 | 360 | 6.0 | 26.0 | 0.00 | 0.00 | 0.00 | 25 | 1013.6 |
| 20260504223554 | 76 | 360 | 11.0 | 26.0 | 0.00 | 0.00 | 0.00 | 22 | 1013.6 |
| 20260504223051 | 76 | 360 | 11.0 | 23.0 | 0.00 | 0.00 | 0.00 | 23 | 1013.6 |
| 20260504222553 | 76 | 360 | 8.0 | 17.0 | 0.00 | 0.00 | 0.00 | 23 | 1013.6 |
| 20260504222053 | 77 | 360 | 3.0 | 21.0 | 0.00 | 0.00 | 0.00 | 22 | 1013.7 |
| 20260504221555 | 77 | 360 | 8.0 | 24.0 | 0.00 | 0.00 | 0.00 | 21 | 1013.7 |
| 20260504221052 | 77 | 360 | 13.0 | 24.0 | 0.00 | 0.00 | 0.00 | 20 | 1013.8 |
| 20260504220555 | 78 | 360 | 10.0 | 18.0 | 0.00 | 0.00 | 0.00 | 20 | 1013.5 |
| 20260504220058 | 78 | 360 | 10.0 | 18.0 | 0.00 | 0.00 | 0.00 | 19 | 1013.3 |
| 20260504215553 | 78 | 360 | 9.0 | 19.0 | 0.00 | 0.00 | 0.00 | 19 | 1013.4 |
| 20260504215056 | 79 | 360 | 8.0 | 22.0 | 0.00 | 0.00 | 0.00 | 20 | 1013.5 |
| 20260504214552 | 79 | 360 | 11.0 | 22.0 | 0.00 | 0.00 | 0.00 | 20 | 1013.5 |
| 20260504214053 | 79 | 360 | 8.0 | 19.0 | 0.00 | 0.00 | 0.00 | 19 | 1013.4 |
| 20260504213553 | 80 | 360 | 8.0 | 19.0 | 0.00 | 0.00 | 0.00 | 18 | 1013.4 |
| 20260504213124 | 81 | 360 | 7.0 | 19.0 | 0.00 | 0.00 | 0.00 | 18 | 1013.3 |
| 20260504212554 | 81 | 360 | 5.0 | 15.0 | 0.00 | 0.00 | 0.00 | 17 | 1013.3 |
| 20260504212055 | 81 | 360 | 10.0 | 15.0 | 0.00 | 0.00 | 0.00 | 17 | 1013.4 |
| 20260504211559 | 82 | 360 | 5.0 | 11.0 | 0.00 | 0.00 | 0.00 | 16 | 1013.1 |
| 20260504211053 | 82 | 360 | 3.0 | 12.0 | 0.00 | 0.00 | 0.00 | 16 | 1013.2 |
| 20260504210553 | 82 | 360 | 2.0 | 13.0 | 0.00 | 0.00 | 0.00 | 17 | 1013.1 |
| 20260504210053 | 82 | 360 | 4.0 | 13.0 | 0.00 | 0.00 | 0.00 | 17 | 1013.1 |
| 20260504205553 | 81 | 360 | 4.0 | 10.0 | 0.00 | 0.00 | 0.00 | 17 | 1013.2 |
| 20260504205053 | 81 | 360 | 4.0 | 10.0 | 0.00 | 0.00 | 0.00 | 17 | 1013.4 |
| 20260504204554 | 81 | 360 | 1.0 | 9.0 | 0.00 | 0.00 | 0.00 | 15 | 1013.3 |
| 20260504204050 | 81 | 360 | 3.0 | 10.0 | 0.00 | 0.00 | 0.00 | 16 | 1013.3 |
| 20260504203557 | 81 | 360 | 1.0 | 10.0 | 0.00 | 0.00 | 0.00 | 16 | 1013.2 |
| 20260504203112 | 81 | 360 | 5.0 | 10.0 | 0.00 | 0.00 | 0.00 | 16 | 1013.3 |
| 20260504202553 | 81 | 360 | 3.0 | 10.0 | 0.00 | 0.00 | 0.00 | 16 | 1013.3 |
| 20260504202048 | 81 | 360 | 4.0 | 12.0 | 0.00 | 0.00 | 0.00 | 16 | 1013.4 |
| 20260504201551 | 81 | 0 | 6.0 | 12.0 | 0.00 | 0.00 | 0.00 | 16 | 1013.3 |
| 20260504201053 | 81 | 360 | 3.0 | 9.0 | 0.00 | 0.00 | 0.00 | 16 | 1013.4 |
| 20260504200554 | 80 | 360 | 3.0 | 13.0 | 0.00 | 0.00 | 0.00 | 17 | 1013.4 |
| 20260504200053 | 80 | 360 | 5.0 | 13.0 | 0.00 | 0.00 | 0.00 | 17 | 1013.5 |
| 20260504195555 | 80 | 360 | 4.0 | 13.0 | 0.00 | 0.00 | 0.00 | 17 | 1013.4 |
| 20260504195052 | 80 | 360 | 3.0 | 15.0 | 0.00 | 0.00 | 0.00 | 17 | 1013.5 |
| 20260504194603 | 81 | 360 | 5.0 | 15.0 | 0.00 | 0.00 | 0.00 | 17 | 1013.5 |
| 20260504194053 | 81 | 360 | 7.0 | 15.0 | 0.00 | 0.00 | 0.00 | 16 | 1013.6 |
| 20260504193553 | 81 | 360 | 6.0 | 14.0 | 0.00 | 0.00 | 0.00 | 17 | 1013.5 |
| 20260504193100 | 81 | 360 | 1.0 | 8.0 | 0.00 | 0.00 | 0.00 | 16 | 1013.4 |
| 20260504192552 | 80 | 0 | 2.0 | 11.0 | 0.00 | 0.00 | 0.00 | 18 | 1013.3 |
| 20260504192052 | 80 | 360 | 4.0 | 11.0 | 0.00 | 0.00 | 0.00 | 17 | 1013.4 |
| 20260504191553 | 80 | 360 | 3.0 | 11.0 | 0.00 | 0.00 | 0.00 | 18 | 1013.4 |
| 20260504191053 | 81 | 360 | 3.0 | 13.0 | 0.00 | 0.00 | 0.00 | 18 | 1013.4 |
| 20260504190557 | 81 | 360 | 5.0 | 13.0 | 0.00 | 0.00 | 0.00 | 18 | 1013.6 |
| 20260504190112 | 80 | 360 | 1.0 | 5.0 | 0.00 | 0.00 | 0.00 | 20 | 1013.4 |
| 20260504185553 | 80 | 0 | 1.0 | 9.0 | 0.00 | 0.00 | 0.00 | 21 | 1013.3 |
| 20260504185053 | 79 | 360 | 1.0 | 11.0 | 0.00 | 0.00 | 0.00 | 21 | 1013.4 |
| 20260504184559 | 78 | 0 | 4.0 | 11.0 | 0.00 | 0.00 | 0.00 | 21 | 1013.8 |
| 20260504184053 | 79 | 360 | 5.0 | 11.0 | 0.00 | 0.00 | 0.00 | 20 | 1013.8 |
| 20260504183556 | 79 | 360 | 1.0 | 10.0 | 0.00 | 0.00 | 0.00 | 21 | 1014.0 |
| 20260504183055 | 78 | 360 | 2.0 | 11.0 | 0.00 | 0.00 | 0.00 | 22 | 1013.9 |
| 20260504182557 | 78 | 0 | 5.0 | 14.0 | 0.00 | 0.00 | 0.00 | 21 | 1014.1 |
| 20260504182053 | 79 | 360 | 2.0 | 14.0 | 0.00 | 0.00 | 0.00 | 22 | 1014.2 |
| 20260504181550 | 79 | 360 | 1.0 | 12.0 | 0.00 | 0.00 | 0.00 | 21 | 1014.1 |
| 20260504181052 | 78 | 0 | 3.0 | 12.0 | 0.00 | 0.00 | 0.00 | 22 | 1014.2 |
| 20260504180553 | 78 | 360 | 2.0 | 11.0 | 0.00 | 0.00 | 0.00 | 23 | 1014.3 |
| 20260504180053 | 78 | 360 | 4.0 | 13.0 | 0.00 | 0.00 | 0.00 | 22 | 1014.3 |
| 20260504175556 | 78 | 360 | 5.0 | 13.0 | 0.00 | 0.00 | 0.00 | 23 | 1014.2 |
| 20260504175057 | 78 | 360 | 3.0 | 10.0 | 0.00 | 0.00 | 0.00 | 23 | 1014.3 |